Sulphur Springs, TX

2:15 AM CDT on May 01, 2017 (GMT -0500)
Sulphur Springs Municipal

Weather History for KSLR - March, 2014

Change the Weather History Date:

Sunday, March 2, 2014

  Actual Average (KGVT) Record (KGVT)
Temperature  
Mean Temperature 44 °F -  
Max Temperature 67 °F 59 °F 77 °F (2006)
Min Temperature 20 °F 44 °F 21 °F (2014)
Degree Days  
Heating Degree Days 22    
Moisture  
Dew Point 32 °F    
Average Humidity 90    
Maximum Humidity 99    
Minimum Humidity 67    
Precipitation  
Precipitation 0.22 in - - ()
Sea Level Pressure  
Sea Level Pressure 30.12 in    
Wind  
Wind Speed 12 mph (NNW)    
Max Wind Speed 22 mph    
Max Gust Speed 26 mph    
Visibility 6 miles    
Events Rain , Snow , Thunderstorm    
Averages and records for this station are not official NWS values.
T = Trace of Precipitation, MM = Missing Value Source: NWS Daily Summary

Daily Weather History Graph

Daily Weather History Graph

Search for Another Location

Airport or City:

Trip Planner

Search our weather history database for the weather conditions in past years. The results will help you decide how hot, cold, wet, or windy it might be!

Date:

Astronomy

Mar. 02, 2014 Rise Set
Actual Time 6:49 AM CST 6:20 PM CST
Civil Twilight 6:24 AM CST 6:45 PM CST
Nautical Twilight 5:55 AM CST 7:13 PM CST
Astronomical Twilight 5:27 AM CST 7:42 PM CST
Moon 7:27 AM CST (3/2) 8:09 PM CST (3/2)
Length of Visible Light 12h 20m
Length of Day
11h 31m
Waxing Crescent, 3% of the Moon is Illuminated
Mar 2
Waxing Crescent
Mar 8
First Quarter
Mar 16
Full
Mar 23
Last Quarter
Mar 30
New

Hourly Weather History & Observations

Time (CST) Temp. Windchill Dew Point Humidity Pressure Visibility Wind Dir Wind Speed Gust Speed Precip Events Conditions
12:15 AM 63.0 °F - 59.9 °F 90% 29.97 in 10.0 mi Calm Calm - N/A   Overcast
12:35 AM 64.0 °F - 60.8 °F 89% 29.97 in 10.0 mi Calm Calm - N/A   Overcast
12:55 AM 66.4 °F - 62.6 °F 88% 29.96 in 10.0 mi South 4.6 mph - N/A   Overcast
1:15 AM 67.1 °F - 62.6 °F 85% 29.97 in 10.0 mi South 6.9 mph - N/A   Overcast
1:35 AM 67.3 °F - 62.6 °F 85% 29.97 in 10.0 mi SSW 5.8 mph - N/A   Overcast
1:55 AM 67.6 °F - 62.2 °F 83% 29.97 in 10.0 mi SSW 4.6 mph - N/A   Overcast
2:15 AM 66.4 °F - 61.9 °F 85% 29.98 in 10.0 mi SW 3.5 mph - N/A   Mostly Cloudy
2:35 AM 67.1 °F - 62.4 °F 85% 29.96 in 10.0 mi South 5.8 mph - N/A   Mostly Cloudy
2:55 AM 63.3 °F - 56.3 °F 78% 29.96 in 10.0 mi North 17.3 mph - N/A   Mostly Cloudy
3:15 AM 55.9 °F - 48.2 °F 75% 29.98 in 7.0 mi North 5.8 mph 13.8 mph N/A   Mostly Cloudy
3:35 AM 52.7 °F - 41.9 °F 67% 30.00 in 10.0 mi NNW 20.7 mph - N/A   Mostly Cloudy
3:55 AM 50.9 °F - 40.5 °F 67% 30.00 in 10.0 mi NNW 16.1 mph - N/A   Overcast
4:15 AM 47.3 °F - 39.4 °F 74% 30.02 in 7.0 mi NNW 18.4 mph 23.0 mph N/A Rain Light Rain
4:35 AM 43.9 °F 35.9 °F 38.5 °F 81% 30.05 in 7.0 mi NW 18.4 mph 21.9 mph N/A Rain Light Rain
4:55 AM 42.1 °F 34.2 °F 38.1 °F 86% 30.04 in 5.0 mi North 16.1 mph - N/A   Light Drizzle
5:15 AM 40.6 °F 31.4 °F 37.0 °F 87% 30.05 in 5.0 mi North 19.6 mph - N/A   Overcast
5:35 AM 39.6 °F 31.0 °F 36.3 °F 88% 30.05 in 5.0 mi NNW 16.1 mph - N/A   Overcast
5:55 AM 38.1 °F 29.1 °F 35.1 °F 89% 30.06 in 5.0 mi NNW 16.1 mph 23.0 mph N/A   Overcast
6:15 AM 37.0 °F 27.4 °F 34.7 °F 91% 30.07 in 5.0 mi NNW 17.3 mph - N/A   Overcast
6:35 AM 35.6 °F 25.5 °F 33.8 °F 93% 30.09 in 3.0 mi NNW 17.3 mph 26.5 mph N/A   Overcast
6:55 AM 34.7 °F 24.3 °F 33.3 °F 94% 30.10 in 3.0 mi North 17.3 mph - N/A   Overcast
7:15 AM 33.8 °F 23.2 °F 32.9 °F 96% 30.11 in 2.0 mi NNW 17.3 mph - N/A Rain Light Rain
7:35 AM 33.6 °F 22.2 °F 32.7 °F 96% 30.12 in 1.2 mi NNW 19.6 mph 25.3 mph N/A Rain Light Rain
7:55 AM 33.4 °F 22.0 °F 32.9 °F 98% 30.12 in 1.0 mi NNW 19.6 mph 23.0 mph 0.01 in Snow Light Snow
8:15 AM 33.1 °F 21.2 °F 32.4 °F 97% 30.13 in 2.0 mi NNW 20.7 mph 26.5 mph N/A Rain Light Rain
8:35 AM 32.9 °F 21.3 °F 32.0 °F 96% 30.14 in 4.0 mi NNW 19.6 mph 26.5 mph N/A   Overcast
8:55 AM 32.9 °F 21.3 °F 32.0 °F 96% 30.14 in 5.0 mi NNW 19.6 mph 23.0 mph N/A   Light Drizzle
9:15 AM 32.4 °F 20.6 °F 32.0 °F 99% 30.14 in 10.0 mi NNW 19.6 mph 25.3 mph N/A   Overcast
9:35 AM 32.2 °F 20.4 °F 31.8 °F 99% 30.14 in 7.0 mi NNW 19.6 mph 24.2 mph N/A   Overcast
9:55 AM 32.2 °F 21.4 °F 31.8 °F 99% 30.14 in 7.0 mi NNW 16.1 mph 23.0 mph N/A   Overcast
10:15 AM 32.2 °F 21.1 °F 31.6 °F 98% 30.14 in 7.0 mi North 17.3 mph - N/A   Overcast
10:35 AM 32.2 °F 20.7 °F 31.8 °F 99% 30.14 in 7.0 mi NNW 18.4 mph - N/A   Overcast
10:55 AM 32.0 °F 21.2 °F 31.5 °F 98% 30.13 in 7.0 mi NNW 16.1 mph - N/A   Overcast
11:10 AM 32.0 °F 20.1 °F 30.9 °F 96% 30.13 in 2.5 mi NNW 19.6 mph 24.2 mph N/A Rain , Thunderstorm Light Thunderstorms and Rain
11:35 AM 31.1 °F 20.5 °F 30.0 °F 96% 30.14 in 1.2 mi NNW 15.0 mph - 0.01 in Snow , Thunderstorm Light Thunderstorms and Snow
11:55 AM 30.2 °F 20.8 °F 28.9 °F 95% 30.15 in 1.0 mi NW 11.5 mph - 0.02 in Rain Light Freezing Rain
12:15 PM 29.7 °F 19.1 °F 28.4 °F 95% 30.13 in 5.0 mi NNW 13.8 mph - N/A   Overcast
12:35 PM 29.3 °F 19.1 °F 27.7 °F 94% 30.12 in 5.0 mi NW 12.7 mph - N/A   Overcast
12:55 PM 27.9 °F 17.3 °F 26.1 °F 93% 30.11 in 5.0 mi NW 12.7 mph 18.4 mph N/A   Overcast
1:15 PM 27.0 °F 16.1 °F 25.5 °F 94% 30.12 in 4.0 mi NNW 12.7 mph - N/A   Overcast
1:35 PM 26.6 °F 14.7 °F 25.3 °F 95% 30.09 in 3.0 mi NW 15.0 mph - N/A   Overcast
1:55 PM 26.2 °F 14.7 °F 25.0 °F 95% 30.10 in 2.5 mi NW 13.8 mph - N/A   Overcast
2:15 PM 26.4 °F 14.5 °F 25.7 °F 97% 30.07 in 2.0 mi NNW 15.0 mph 20.7 mph N/A Snow , Thunderstorm Light Thunderstorms and Snow
2:35 PM 27.0 °F 16.1 °F 26.1 °F 96% 30.08 in 2.0 mi NNW 12.7 mph - 0.01 in Thunderstorm Thunderstorm
2:55 PM 28.8 °F 20.2 °F 27.9 °F 96% 30.06 in 1.2 mi NNW 9.2 mph - 0.06 in Snow , Thunderstorm Light Thunderstorms and Snow
3:15 PM 30.0 °F 20.5 °F 28.9 °F 96% 30.07 in 1.2 mi NNW 11.5 mph - 0.01 in Snow , Thunderstorm Light Thunderstorms and Snow
3:35 PM 30.0 °F 18.7 °F 28.9 °F 96% 30.05 in 1.0 mi NNW 16.1 mph 19.6 mph 0.01 in Snow , Thunderstorm Light Thunderstorms and Snow
3:50 PM 28.4 °F 16.2 °F 27.0 °F 94% 30.08 in 3.0 mi NW 17.3 mph - 0.02 in Snow , Thunderstorm Light Thunderstorms and Snow
4:15 PM 29.1 °F 18.4 °F 28.0 °F 96% 30.10 in 0.5 mi NW 13.8 mph - 0.04 in Snow , Thunderstorm Light Thunderstorms and Snow
4:35 PM 27.3 °F 14.4 °F 25.9 °F 94% 30.07 in 1.0 mi NW 18.4 mph 23.0 mph 0.06 in Snow , Thunderstorm Light Thunderstorms and Snow
4:55 PM 25.7 °F 12.3 °F 24.1 °F 94% 30.13 in 1.0 mi NW 18.4 mph 23.0 mph 0.08 in Snow , Thunderstorm Light Thunderstorms and Snow
5:15 PM 24.4 °F 9.9 °F 22.6 °F 93% 30.14 in 0.8 mi NNW 20.7 mph - 0.02 in Snow , Thunderstorm Light Thunderstorms and Snow
5:35 PM 23.0 °F 9.2 °F 21.0 °F 92% 30.17 in 2.0 mi NW 17.3 mph - 0.02 in Snow , Thunderstorm Light Thunderstorms and Snow
5:55 PM 23.0 °F 10.1 °F 21.0 °F 92% 30.14 in 1.8 mi NNW 15.0 mph 18.4 mph 0.02 in Snow , Thunderstorm Light Thunderstorms and Snow
6:15 PM 23.7 °F 12.6 °F 22.1 °F 94% 30.15 in 0.8 mi NW 11.5 mph - N/A Snow , Thunderstorm Light Thunderstorms and Snow
6:35 PM 23.0 °F 10.1 °F 21.2 °F 93% 30.16 in 5.0 mi NNW 15.0 mph - 0.01 in Snow , Thunderstorm Light Thunderstorms and Snow
6:55 PM 23.0 °F 10.1 °F 20.3 °F 89% 30.19 in 10.0 mi NW 15.0 mph 20.7 mph 0.01 in   Mostly Cloudy
7:15 PM 22.1 °F 6.4 °F 19.4 °F 89% 30.21 in 7.0 mi NNW 21.9 mph - N/A   Mostly Cloudy
7:35 PM 21.9 °F 8.7 °F 18.5 °F 87% 30.21 in 10.0 mi NNW 15.0 mph 23.0 mph N/A Thunderstorm Overcast
7:55 PM 21.9 °F 6.5 °F 18.3 °F 86% 30.21 in 10.0 mi NNW 20.7 mph - N/A   Overcast
8:15 PM 21.9 °F 8.2 °F 18.5 °F 87% 30.21 in 10.0 mi North 16.1 mph 23.0 mph N/A   Overcast
8:35 PM 21.7 °F 9.0 °F 18.1 °F 86% 30.21 in 10.0 mi NNW 13.8 mph - N/A   Overcast
8:55 PM 22.1 °F 9.5 °F 18.7 °F 87% 30.22 in 10.0 mi NNW 13.8 mph - N/A   Overcast
9:15 PM 22.1 °F 10.6 °F 18.3 °F 85% 30.28 in 10.0 mi NW 11.5 mph 16.1 mph N/A   Overcast
9:35 PM 21.9 °F 8.7 °F 18.1 °F 85% 30.27 in 10.0 mi NW 15.0 mph - N/A   Overcast
9:55 PM 21.6 °F 7.8 °F 17.4 °F 84% 30.29 in 10.0 mi NNW 16.1 mph 21.9 mph N/A   Overcast
10:15 PM 21.2 °F 7.3 °F 16.7 °F 83% 30.29 in 10.0 mi NW 16.1 mph - N/A   Overcast
10:35 PM 21.2 °F 7.8 °F 16.7 °F 83% 30.30 in 10.0 mi NW 15.0 mph 20.7 mph N/A   Overcast
10:55 PM 20.8 °F 7.3 °F 16.0 °F 81% 30.30 in 10.0 mi NW 15.0 mph - N/A   Overcast
11:15 PM 21.0 °F 6.2 °F 16.3 °F 82% 30.31 in 10.0 mi NNW 18.4 mph 21.9 mph N/A   Overcast
11:35 PM 20.7 °F 5.7 °F 16.2 °F 83% 30.31 in 10.0 mi NNW 18.4 mph - N/A   Overcast
11:55 PM 20.5 °F 4.6 °F 16.0 °F 83% 30.32 in 10.0 mi NNW 20.7 mph 26.5 mph N/A   Overcast